Tracking 17631 objects as of 5-May-2016
HD Live streaming from Space Station
objects crossing your sky now

SL-8 DEB

Track SL-8 DEB now!
10-day predictions


NORAD ID: 21250
Int'l Code: 1991-009BH
Perigee: 1,493.1 km
Apogee: 1,718.6 km
Inclination: 74.1 °
Period: 118.2 minutes
Semi major axis: 7976 km
RCS: 0.1024 m2 (medium)
Launch date: February 12, 1991
Source: Commonwealth of Independent States (former USSR) (CIS)
Launch site: PLESETSK MISSILE AND SPACE COMPLEX (PKMTR)

Note: This is SATELLITE DEBRIS
Your satellite tracking list
Your tracking list is empty





NASA's NSSDC Master Catalog

Two Line Element Set (TLE):
1 21250U 91009BH  16124.65913578  .00000065  00000-0  75809-3 0  9990
2 21250  74.0618 200.4058 0141348 166.5601 311.5569 12.18580720119255
Source of the keplerian elements: AFSPC

N2YO: 280